Hourly Weather Holovuriv

Today, 12 May, Wednesday

Time Temperature Precipitation Wind Pressure Humidity
00:00 +10°C° 0 mm 4 mps 754 mmHg 93%
01:00 +8°C° 0 mm 4 mps 754 mmHg 91%
02:00 +7°C° 0 mm 4 mps 754 mmHg 90%
03:00 +7°C° 0 mm 4 mps 754 mmHg 91%
04:00 +6°C° 0 mm 4 mps 754 mmHg 91%
05:00 +5°C° 0 mm 4 mps 755 mmHg 92%
06:00 +7°C° 0 mm 5 mps 754 mmHg 87%
07:00 +8°C° 0 mm 5 mps 754 mmHg 82%
08:00 +9°C° 0 mm 6 mps 754 mmHg 78%
09:00 +9°C° 0.1 mm 6 mps 754 mmHg 75%
10:00 +10°C° 0.1 mm 6 mps 754 mmHg 72%
11:00 +11°C° 0.1 mm 6 mps 754 mmHg 69%
12:00 +11°C° 0.1 mm 6 mps 753 mmHg 66%
13:00 +13°C° 0.1 mm 6 mps 753 mmHg 64%
14:00 +13°C° 0.1 mm 5 mps 753 mmHg 62%
15:00 +13°C° 0.1 mm 5 mps 752 mmHg 65%
16:00 +12°C° 0.1 mm 5 mps 752 mmHg 69%
17:00 +12°C° 0.1 mm 5 mps 752 mmHg 73%
18:00 +11°C° 0 mm 4 mps 751 mmHg 78%
19:00 +9°C° 0 mm 3 mps 751 mmHg 84%
20:00 +8°C° 0 mm 2 mps 751 mmHg 89%
21:00 +7°C° 0 mm 2 mps 751 mmHg 91%
22:00 +7°C° 0 mm 2 mps 750 mmHg 92%
23:00 +7°C° 0 mm 1 mps 750 mmHg 93%

Tomorrow, 13 May, Thursday

Time Temperature Precipitation Wind Pressure Humidity
00:00 +7°C° 0 mm 1 mps 750 mmHg 93%
01:00 +7°C° 0 mm 1 mps 749 mmHg 93%
02:00 +7°C° 0 mm 1 mps 749 mmHg 94%
03:00 +7°C° 0 mm 1 mps 749 mmHg 93%
04:00 +7°C° 0 mm 1 mps 749 mmHg 93%
05:00 +7°C° 0 mm 1 mps 749 mmHg 93%
06:00 +8°C° 0 mm 2 mps 749 mmHg 88%
07:00 +9°C° 0 mm 3 mps 749 mmHg 83%
08:00 +10°C° 0 mm 3 mps 749 mmHg 78%
09:00 +11°C° 0 mm 4 mps 749 mmHg 72%
10:00 +13°C° 0 mm 4 mps 749 mmHg 66%
11:00 +14°C° 0 mm 5 mps 749 mmHg 61%
12:00 +14°C° 0 mm 5 mps 749 mmHg 59%
13:00 +15°C° 0 mm 5 mps 748 mmHg 58%
14:00 +15°C° 0 mm 6 mps 748 mmHg 57%
15:00 +14°C° 0 mm 4 mps 748 mmHg 64%
16:00 +13°C° 0 mm 3 mps 748 mmHg 72%
17:00 +13°C° 0 mm 2 mps 748 mmHg 79%
18:00 +12°C° 0 mm 3 mps 748 mmHg 80%
19:00 +11°C° 0 mm 3 mps 748 mmHg 81%
20:00 +11°C° 0 mm 3 mps 748 mmHg 82%
21:00 +11°C° 0.2 mm 3 mps 748 mmHg 85%
22:00 +11°C° 0.2 mm 3 mps 748 mmHg 89%
23:00 +11°C° 0.2 mm 3 mps 748 mmHg 92%

Day after tomorrow, 14 May, Friday

Time Temperature Precipitation Wind Pressure Humidity
00:00 +11°C° 0 mm 3 mps 748 mmHg 91%
01:00 +11°C° 0 mm 3 mps 747 mmHg 91%
02:00 +11°C° 0 mm 4 mps 747 mmHg 90%
03:00 +11°C° 0.1 mm 3 mps 747 mmHg 92%
04:00 +10°C° 0.1 mm 3 mps 747 mmHg 93%
05:00 +10°C° 0.1 mm 3 mps 747 mmHg 94%
06:00 +11°C° 0 mm 3 mps 747 mmHg 88%
07:00 +13°C° 0 mm 3 mps 747 mmHg 82%
08:00 +16°C° 0 mm 3 mps 747 mmHg 76%
09:00 +17°C° 0 mm 3 mps 747 mmHg 71%
10:00 +18°C° 0 mm 3 mps 747 mmHg 66%
11:00 +19°C° 0 mm 3 mps 747 mmHg 61%
12:00 +20°C° 0 mm 3 mps 747 mmHg 60%
13:00 +21°C° 0 mm 3 mps 747 mmHg 59%
14:00 +21°C° 0 mm 3 mps 746 mmHg 57%
15:00 +20°C° 0.1 mm 3 mps 746 mmHg 63%
16:00 +20°C° 0.1 mm 3 mps 746 mmHg 68%
17:00 +19°C° 0.1 mm 3 mps 746 mmHg 73%
18:00 +18°C° 0.1 mm 2 mps 746 mmHg 77%
19:00 +17°C° 0.1 mm 2 mps 746 mmHg 80%
20:00 +16°C° 0.1 mm 2 mps 746 mmHg 84%
21:00 +15°C° 0 mm 2 mps 746 mmHg 87%
22:00 +14°C° 0 mm 2 mps 746 mmHg 90%
23:00 +12°C° 0 mm 3 mps 747 mmHg 94%

15 May, Saturday

Time Temperature Precipitation Wind Pressure Humidity
00:00 +11°C° 0 mm 3 mps 747 mmHg 94%
01:00 +11°C° 0 mm 3 mps 747 mmHg 95%
02:00 +10°C° 0 mm 3 mps 747 mmHg 95%
03:00 +11°C° 0 mm 3 mps 747 mmHg 95%
04:00 +11°C° 0 mm 3 mps 747 mmHg 96%
05:00 +11°C° 0 mm 3 mps 747 mmHg 96%
06:00 +12°C° 0 mm 3 mps 748 mmHg 94%
07:00 +13°C° 0 mm 3 mps 748 mmHg 91%
08:00 +13°C° 0 mm 3 mps 748 mmHg 89%
09:00 +16°C° 0 mm 3 mps 749 mmHg 81%
10:00 +17°C° 0 mm 3 mps 749 mmHg 72%
11:00 +19°C° 0 mm 4 mps 749 mmHg 64%
12:00 +19°C° 0 mm 4 mps 749 mmHg 61%
13:00 +20°C° 0 mm 4 mps 749 mmHg 58%
14:00 +20°C° 0 mm 5 mps 749 mmHg 55%
15:00 +20°C° 0 mm 4 mps 749 mmHg 58%
16:00 +20°C° 0 mm 4 mps 749 mmHg 61%
17:00 +19°C° 0 mm 3 mps 749 mmHg 64%
18:00 +18°C° 0 mm 3 mps 749 mmHg 69%
19:00 +16°C° 0 mm 2 mps 749 mmHg 74%
20:00 +15°C° 0 mm 1 mps 749 mmHg 79%
21:00 +14°C° 0 mm 1 mps 749 mmHg 80%
22:00 +14°C° 0 mm 1 mps 749 mmHg 80%
23:00 +13°C° 0 mm 1 mps 749 mmHg 81%

16 May, Sunday

Time Temperature Precipitation Wind Pressure Humidity
00:00 +13°C° 0 mm 1 mps 749 mmHg 82%
01:00 +13°C° 0 mm 1 mps 749 mmHg 83%
02:00 +12°C° 0 mm 1 mps 749 mmHg 83%
03:00 +12°C° 0 mm 1 mps 750 mmHg 85%
04:00 +12°C° 0 mm 1 mps 750 mmHg 86%
05:00 +12°C° 0 mm 1 mps 750 mmHg 87%
06:00 +14°C° 0 mm 2 mps 750 mmHg 83%
07:00 +16°C° 0 mm 2 mps 750 mmHg 79%
08:00 +18°C° 0 mm 3 mps 750 mmHg 75%
09:00 +19°C° 0.1 mm 3 mps 750 mmHg 72%
10:00 +20°C° 0.1 mm 3 mps 750 mmHg 68%
11:00 +21°C° 0.1 mm 3 mps 750 mmHg 65%
12:00 +22°C° 0.1 mm 3 mps 749 mmHg 63%
13:00 +22°C° 0.1 mm 3 mps 749 mmHg 62%
14:00 +24°C° 0.1 mm 3 mps 749 mmHg 60%
15:00 +22°C° 0.3 mm 3 mps 749 mmHg 65%
16:00 +22°C° 0.3 mm 3 mps 748 mmHg 69%
17:00 +21°C° 0.3 mm 3 mps 748 mmHg 74%
18:00 +20°C° 0.1 mm 3 mps 748 mmHg 78%
19:00 +19°C° 0.1 mm 3 mps 748 mmHg 82%
20:00 +17°C° 0.1 mm 3 mps 747 mmHg 87%
21:00 +17°C° 0 mm 3 mps 747 mmHg 88%
22:00 +16°C° 0 mm 3 mps 747 mmHg 89%
23:00 +16°C° 0 mm 3 mps 747 mmHg 91%

17 May, Monday

Time Temperature Precipitation Wind Pressure Humidity
00:00 +16°C° 0.1 mm 3 mps 747 mmHg 91%
01:00 +14°C° 0.1 mm 3 mps 746 mmHg 91%
02:00 +14°C° 0.1 mm 3 mps 746 mmHg 92%
03:00 +14°C° 1.1 mm 3 mps 746 mmHg 93%
04:00 +14°C° 1.1 mm 3 mps 745 mmHg 95%
05:00 +15°C° 1.1 mm 2 mps 745 mmHg 96%
06:00 +16°C° 0.2 mm 3 mps 745 mmHg 93%
07:00 +17°C° 0.2 mm 3 mps 744 mmHg 89%
08:00 +18°C° 0.2 mm 4 mps 744 mmHg 86%
09:00 +20°C° 0 mm 4 mps 744 mmHg 81%
10:00 +21°C° 0 mm 4 mps 744 mmHg 75%
11:00 +24°C° 0 mm 3 mps 743 mmHg 70%
12:00 +24°C° 0 mm 3 mps 743 mmHg 69%
13:00 +23°C° 0 mm 4 mps 743 mmHg 69%
14:00 +23°C° 0 mm 4 mps 743 mmHg 68%
15:00 +24°C° 0.1 mm 3 mps 743 mmHg 69%
16:00 +24°C° 0.1 mm 3 mps 743 mmHg 70%
17:00 +24°C° 0.1 mm 3 mps 743 mmHg 71%
18:00 +21°C° 0.9 mm 3 mps 744 mmHg 79%
19:00 +20°C° 0.9 mm 4 mps 744 mmHg 86%
20:00 +18°C° 0.9 mm 4 mps 744 mmHg 94%
21:00 +17°C° 0.8 mm 4 mps 744 mmHg 95%
22:00 +17°C° 0.8 mm 3 mps 745 mmHg 96%
23:00 +16°C° 0.8 mm 3 mps 745 mmHg 97%
Show more

We Need Your Consent

Meteoprog and our Service Providers may store and access personal data such as cookies, device identifiers or other similar technologies on your device and process such data to personalise content and ads, as well as provide social media features and to analyse the traffic.

  • Store and/or access information on your device

    Cookies, device identifiers or other information can be stored or accessed on your device for the purposes indicated above.

  • Personalised ads and content, ad and content measurement, audience insights, and products development

    Ads and content can be personalised based on a profile. More data can be added to better personalise ads and content. Ad and content performance can be measured. Insights about the audience who saw the ads and content can be derived. Such data can be used to develop or improve user’s experience, systems and software.

By clicking ‘I Agree’ you will allow the use of indicated cookies, device identifiers, web beacons or other similar technologies. Your settings can be changed in the browser on your device.

For certain purposes, legitimate interests may be relied on, rather than consent. You can read more about this in our Privacy and Cookie Policy.